CW1136 Weather Reports


time (UTC)temp
F
wind
direction
speed
knots
gust
knots
rain 1hr
in
rain 24hr
in
rain mn
in
humidity
%
barometer
mb
20260906063047 55 346 2.6 6.1 0.00 0.00 0.00 78 1007.7
20260906061549 53 17 0.9 3.5 0.00 0.00 0.00 81 1007.6
20260906060127 53 325 0.0 3.5 0.00 0.00 0.00 80 1007.4
20260906054553 53 331 0.9 3.5 0.00 0.00 0.00 82 1007.6
20260906053047 52 9 1.7 3.5 0.00 0.00 0.00 82 1007.4
20260906051545 52 25 2.6 8.7 0.00 0.00 0.00 83 1007.4
20260906050054 52 321 1.7 9.6 0.00 0.00 0.00 83 1007.2
20260906044548 51 335 3.5 12.2 0.00 0.00 0.00 84 1007.0
20260906043045 51 0 2.6 8.7 0.00 0.00 0.00 85 1006.9
20260906041546 50 351 4.3 9.6 0.00 0.00 0.00 87 1006.8
20260906040053 49 348 3.5 9.6 0.00 0.00 0.00 87 1006.7
20260906034605 49 336 5.2 11.3 0.00 0.00 0.00 86 1006.5
20260906033047 49 335 6.1 13.0 0.00 0.00 0.00 86 1006.2
20260906031553 49 5 3.5 13.0 0.00 0.00 0.00 86 1006.0
20260906030048 49 352 4.3 10.4 0.00 0.00 0.00 87 1006.0
20260906024552 50 348 4.3 11.3 0.00 0.00 0.00 86 1005.8
20260906023044 50 24 6.1 12.2 0.00 0.00 0.00 86 1005.6
20260906021547 50 348 6.1 11.3 0.00 0.00 0.00 86 1005.5
20260906020057 50 9 4.3 10.4 0.00 0.00 0.00 86 1005.3
20260906014552 50 19 3.5 14.8 0.00 0.00 0.00 86 1005.3
20260906013049 50 315 5.2 13.9 0.00 0.00 0.00 87 1005.3
20260906011547 50 336 6.1 17.4 0.00 0.00 0.00 86 1004.9
20260906010106 50 344 6.1 15.6 0.00 0.00 0.00 86 1004.7
20260906004611 50 345 4.3 16.5 0.00 0.00 0.00 85 1004.5
20260906003049 50 28 7.0 15.6 0.00 0.00 0.00 86 1004.3
20260906001600 50 19 5.2 13.9 0.00 0.00 0.00 85 1004.2
20260906000047 50 326 5.2 19.1 0.00 0.00 0.00 85 1003.9
20260905234552 51 323 6.1 16.5 0.00 0.00 0.00 84 1003.6
20260905233050 51 344 8.7 16.5 0.00 0.00 0.00 84 1003.6
20260905231557 51 360 6.1 14.8 0.00 0.00 0.00 84 1003.5
20260905230058 51 5 5.2 16.5 0.00 0.00 0.00 84 1003.3
20260905224548 52 333 3.5 15.6 0.00 0.00 0.00 84 1003.2
20260905223057 51 352 6.1 14.8 0.00 0.00 0.00 83 1003.0
20260905221600 52 346 7.0 13.9 0.00 0.00 0.00 83 1002.8
20260905220051 52 348 5.2 13.0 0.00 0.00 0.00 85 1002.7
20260905214548 53 16 4.3 11.3 0.00 0.00 0.00 84 1002.4
20260905213049 54 46 7.0 13.0 0.00 0.00 0.00 84 1002.2
20260905211554 54 322 4.3 10.4 0.00 0.00 0.00 84 1001.8
20260905210107 55 352 3.5 15.6 0.00 0.00 0.00 84 1001.6
20260905204546 55 337 5.2 12.2 0.00 0.00 0.00 84 1001.5
20260905203046 56 352 5.2 13.0 0.00 0.00 0.00 84 1001.1
20260905201553 56 15 6.1 14.8 0.00 0.00 0.00 85 1000.8
20260905200112 56 351 2.6 12.2 0.00 0.00 0.00 85 1000.6
20260905194546 56 333 5.2 13.0 0.00 0.00 0.00 85 1000.4
20260905193044 56 340 4.3 10.4 0.00 0.00 0.00 85 1000.3
20260905191552 57 346 6.1 13.0 0.00 0.00 0.00 84 1000.2
20260905190051 57 344 5.2 13.0 0.00 0.00 0.00 83 1000.2
20260905184555 57 344 7.0 13.0 0.00 0.00 0.00 82 1000.1
20260905183046 57 352 6.1 13.9 0.00 0.00 0.00 82 1000.0
20260905181553 57 315 4.3 13.0 0.00 0.00 0.00 83 999.9
20260905180050 57 318 3.5 13.0 0.00 0.00 0.00 82 999.7
20260905174546 57 311 4.3 10.4 0.00 0.00 0.00 81 999.5
20260905173050 58 294 4.3 10.4 0.00 0.00 0.00 79 999.4
20260905171553 59 299 3.5 12.2 0.00 0.00 0.00 79 999.3
20260905170050 59 346 5.2 11.3 0.00 0.00 0.00 77 999.1
20260905164548 60 326 4.3 12.2 0.00 0.00 0.00 76 998.9
20260905163045 60 329 7.0 14.8 0.00 0.00 0.00 74 998.9
20260905161553 60 306 5.2 13.0 0.00 0.00 0.00 73 998.7
20260905160051 60 319 4.3 14.8 0.00 0.00 0.00 75 998.5
20260905154547 61 342 7.0 12.2 0.00 0.00 0.00 71 998.5
20260905153046 60 324 6.1 12.2 0.00 0.00 0.00 74 998.4
20260905151600 61 352 5.2 14.8 0.00 0.00 0.00 73 998.4
20260905150049 61 347 8.7 14.8 0.00 0.00 0.00 73 998.4
20260905144548 61 348 4.3 13.9 0.00 0.00 0.00 72 998.2
20260905143046 62 278 7.0 15.6 0.00 0.00 0.00 66 998.1
20260905141551 61 290 4.3 11.3 0.00 0.00 0.00 71 997.9
20260905140046 62 319 2.6 13.9 0.00 0.00 0.00 69 997.8
20260905134547 63 345 7.0 13.0 0.00 0.00 0.00 66 997.6
20260905133043 64 295 7.0 13.9 0.00 0.00 0.00 57 997.4
20260905131552 64 343 4.3 13.0 0.00 0.00 0.00 57 997.4
20260905130047 63 339 7.8 14.8 0.00 0.00 0.00 58 997.3
20260905124547 63 282 6.1 14.8 0.00 0.00 0.00 59 997.1
20260905123103 63 338 7.8 13.0 0.00 0.00 0.00 59 997.0
20260905121548 64 285 4.3 13.0 0.00 0.00 0.00 60 996.9
20260905120046 63 294 5.2 13.0 0.00 0.00 0.00 60 996.8
20260905114546 64 344 3.5 10.4 0.00 0.00 0.00 62 996.7
20260905113050 64 347 1.7 10.4 0.00 0.00 0.00 63 996.7
20260905111555 63 347 3.5 11.3 0.00 0.00 0.00 65 996.6
20260905110046 63 344 3.5 11.3 0.00 0.00 0.00 66 996.5
20260905104545 62 276 3.5 10.4 0.00 0.00 0.00 67 996.3
20260905103058 62 333 4.3 13.0 0.00 0.00 0.00 66 996.2
20260905101547 62 346 4.3 14.8 0.00 0.00 0.00 66 996.1
20260905100056 61 351 6.1 12.2 0.00 0.00 0.00 67 996.0
20260905094547 62 317 5.2 10.4 0.00 0.00 0.00 68 995.8
20260905093050 61 307 3.5 11.3 0.00 0.00 0.00 71 995.7
20260905091553 60 275 5.2 10.4 0.00 0.00 0.00 76 995.6
20260905090045 61 348 3.5 8.7 0.00 0.00 0.00 74 995.3
20260905084607 60 20 1.7 7.8 0.00 0.00 0.00 76 995.3
20260905083052 60 336 3.5 7.8 0.00 0.00 0.00 76 995.2
20260905081545 58 9 4.3 8.7 0.00 0.00 0.00 80 995.3
20260905080111 58 344 2.6 6.1 0.00 0.00 0.00 82 995.1
20260905074553 56 316 2.6 7.8 0.00 0.00 0.00 85 994.9
20260905073049 56 360 2.6 7.0 0.00 0.00 0.00 87 994.9
20260905071547 55 327 2.6 8.7 0.00 0.00 0.00 89 994.7
20260905070058 55 341 0.9 5.2 0.00 0.00 0.00 91 994.7
20260905064559 54 352 2.6 6.1 0.00 0.00 0.00 92 994.6